Miscellaneous Local Product
Issued by NWS North Platte, NE

Home | Current Version | Previous Version | Text Only | Print | Product List | Glossary On
Versions: 1 2 3 4 5 6 7 8 9 10 11 12 13 14 15 16 17 18 19 20 21 22 23 24 25 26 27 28 29 30 31 32 33 34 35 36 37 38 39 40 41 42 43 44 45 46 47 48 49 50
000
AXUS43 KLBF 271710
MISLBF


WESTERN AND NORTH CENTRAL NEBRASKA HOURLY WEATHER ROUNDUP
NATIONAL WEATHER SERVICE NORTH PLATTE NE
1200 PM CDT MON APR 27 2015

***STATIONS NOT REPORTING VARIABLES SUCH AS SKY/WEATHER OR
PRESSURE ARE PROVIDED BY THE NEBRASKA DEPARTMENT OF
ROADS...RAWS...AND APRS NETWORKS...AND ARE NOT UNDER
NATIONAL WEATHER SERVICE QUALITY CONTROL***

...OBSERVATIONS IN AND NEAR THE EASTERN PANHANDLE OF NEBRASKA...

CITY           SKY/WX    TMP DP  RH WIND       PRES   REMARKS
PINE RIDGE     CLOUDY    52  43  71 N8        30.29R
CHADRON        PTSUNNY   52  45  77 N10       30.29R
ALLIANCE       MOSUNNY   52  36  54 VRB3      30.26R
SIDNEY         CLOUDY    49  36  61 NE7       30.28R
WHITECLAY        N/A     50  42  74 NW8         N/A
CRESCENT LAKE    N/A     55  37  50 SW5         N/A
BIG SPRINGS      N/A     53  39  59 E3          N/A
$$

...OBSERVATIONS IN NORTH CENTRAL NEBRASKA...

CITY           SKY/WX    TMP DP  RH WIND       PRES   REMARKS
VALENTINE      SUNNY     63  32  31 N6        30.24S
THEDFORD       SUNNY     61  35  37 N8        30.25S
AINSWORTH      SUNNY     62  31  31 NE9       30.24R
O`NEILL        MOSUNNY   64  36  35 N12       30.22S
ORD            MOSUNNY   64  34  32 NE12      30.20S
BROKEN BOW     MOSUNNY   62  34  35 N9        30.22S
BROWNLEE         N/A     63  26  24 N9          N/A
SPRINGVIEW       N/A     64  34  33 N3G15       N/A
BREWSTER         N/A     64  34  32 NE6         N/A
ROSE             N/A     65  36  34 E5          N/A
NEWPORT          N/A     64  34  32 NE10        N/A
SARGENT          N/A     61  37  41 NE5G12      N/A
COMSTOCK         N/A     66  37  34 NE10        N/A
EWING            N/A     64  33  32 N7G14       N/A
$$

...OBSERVATIONS IN SOUTHWEST NEBRASKA AND FAR NORTHEAST COLORADO...

CITY           SKY/WX    TMP DP  RH WIND       PRES   REMARKS
WRAY           PTSUNNY   53  33  47 NE13      30.25S
HOLYOKE        FAIR      54  36  50 E8        30.27R
IMPERIAL       PTSUNNY   54  33  45 E12G21    30.25S
OGALLALA       PTSUNNY   56  36  47 E6        30.27R
NORTH PLATTE   MOSUNNY   58  35  42 E6        30.25R
MCCOOK         CLOUDY    57  32  38 NE13      30.23S
LEXINGTON      PTSUNNY   58  38  48 NE14      30.23S
PAXTON           N/A     55  40  57 CALM        N/A
SUTHERLAND       N/A     54  27  35 NE8         N/A
BRADY            N/A     58  38  47 CALM        N/A
GOTHENBURG       N/A     56  34  44 NE5         N/A
CALLAWAY         N/A     57  41  55 NE10        N/A
$$

...NORTH PLATTE AREA...

CITY           SKY/WX    TMP DP  RH WIND       PRES   REMARKS
AIRPORT        MOSUNNY   58  35  42 E6        30.25R
DOWNTOWN         N/A     58  35  42 E3          N/A
$$

...SOME WEATHER OBSERVATIONS FROM AROUND THE REGION...

CITY           SKY/WX    TMP DP  RH WIND       PRES   REMARKS
DENVER         CLOUDY    41  38  89 N9        30.28R
LARAMIE        CLOUDY    41  32  70 E5        30.25S
CHEYENNE       CLOUDY    38  35  89 N3        30.28R FOG
SCOTTSBLUFF    CLOUDY    50  41  71 W5        30.29R
RAPID CITY     CLOUDY    44  39  82 N20G29    30.30R
PIERRE           N/A    N/A N/A N/A MISG      30.22F
WINNER         FAIR      66  31  27 N9        30.23S
SIOUX FALLS    MOSUNNY   63  28  26 NE5       30.22F
OMAHA          MOSUNNY   63  32  31 NE10G21   30.21S
GRAND ISLAND   PTSUNNY   59  34  39 NE8       30.23R
KANSAS CITY    PTSUNNY   59  37  44 E16       30.15F
WICHITA        CLOUDY    58  33  39 NE28      30.03F
HAYS           PTSUNNY   57  34  41 E23G30    30.15S
LIBERAL        CLOUDY    45  39  81 NE15G26   30.08S
GOODLAND       MOSUNNY   51  34  52 NE18G25   30.22R
$$



USA.gov is the U.S. government's official web portal to all federal, state and local government web resources and services.